HISPASAT 30W-6 (43228 NORAD) Tracking and Keplerian Element Data

This shows tracking and keplerian element data for the satellite.

Feedback or suggestion? Click here.




ElementValue
Catalog43228
NameHISPASAT 30W-6
Epoch Orbit462
Epoch Day145.12132622
Epoch Year2019
RAAN46.9865
Inclination0.0456
Eccentricity0.0006755
Argument of Perigee14.8871
Mean Anonmoly194.2217
Mean Motion1.00273639
Decay Rate-2.21E-06
L11 43228U 18023A 19145.12132622 -.00000221 00000-0 00000+0 0 9997
L22 43228 0.0456 46.9865 0006755 14.8871 194.2217 1.00273639 4625

Live tracking and technical data element details for HISPASAT 30W-6 (NORAD 43228). HISPASAT 30W-6 can be tracked NOW for your location showing map with azimuth and elevation plus other details from your city location.

Track the satellite on the map from your city or location and see movement details for azimuth, elevation, latitude, longitude, range, height, and movement on the map or in text.







IsCatalogInMostPopularTable: catalog: 43228, numindb: 336
Update: records affected: 1



GetName: 43228 HISPASAT 30W-6

Hit Count: updated at: Sat, 25 May 2019 13:00:24 GMT